Regional Weather Roundup
Issued by NWS Cleveland, OH

Home | Current Version | Previous Version | Graphics & Text | Print | Product List | Glossary On
Versions: 1 2 3 4 5 6 7 8 9 10 11 12 13 14 15 16 17 18 19 20 21 22 23 24 25 26 27 28 29 30 31 32 33 34 35 36 37 38 39 40 41 42 43 44 45 46 47 48 49 50
000
ASUS41 KCLE 200410
RWRCLE
OHIO REGIONAL WEATHER ROUNDUP
NATIONAL WEATHER SERVICE CLEVELAND, OH
1200 AM EDT SUN APR 20 2014

NOTE: "FAIR" INDICATES FEW OR NO CLOUDS BELOW 12,000 FEET WITH NO
SIGNIFICANT WEATHER AND/OR OBSTRUCTIONS TO VISIBILITY.

OHZ001>008-015>018-024>027-034-035-043-044-200500-
   NORTHWEST OHIO

CITY           SKY/WX    TMP DP  RH WIND       PRES   REMARKS
DEFIANCE       PTCLDY    42  29  59 E5        30.32F
FINDLAY        CLEAR     42  31  64 NE8       30.30F
TOLEDO EXPRESS CLEAR     40  31  70 E5        30.33S
TOLEDO EXEC    CLEAR     41  32  70 E5        30.34F
LIMA           CLEAR     41  30  65 NE5       30.30S
$$

OHZ009>014-019>023-028>033-038-089-200500-
   NORTHEAST OHIO

CITY           SKY/WX    TMP DP  RH WIND       PRES   REMARKS
CLE-HOPKINS    CLEAR     44  30  57 NE5       30.34F
CLE-LAKEFRONT  CLEAR     43  31  62 NE5       30.31F
CUY CO. ARPT   NOT AVBL
LORAIN-ELYRIA  CLEAR     41  32  70 E5        30.32F
ASHTABULA      PTCLDY    38  26  62 CALM      30.34S
AKRON-CANTON   PTCLDY    45  25  45 NE6       30.31S
WOOSTER        PTCLDY    38  32  79 CALM      30.31S
MANSFIELD      CLEAR     39  30  70 CALM      30.30F
YOUNGSTOWN     MOCLDY    42  30  62 N3        30.31F
$$

OHZ042-051>053-060>062-070>072-077>081-200500-
  SOUTHWEST OHIO

CITY           SKY/WX    TMP DP  RH WIND       PRES   REMARKS
CINC-COVINGTON PTCLDY    58  34  40 NE7       30.25R
CINC-LUNKEN    CLEAR     46  42  86 CALM      30.26S
HAMILTON       CLEAR     50  40  68 CALM      30.27R
DAYTON         PTCLDY    47  34  60 NE8       30.29R
WRIGHT-PAT AFB CLEAR     48  33  55 NE7       30.27S
DAYTON GENERAL CLEAR     49  33  54 NE8       30.26R
WILMINGTON     PTCLDY    45  34  65 NE10      30.26S
$$

OHZ036-037-039>041-045>050-054>059-063>069-073>076-082>088-200500-
  CENTRAL AND SOUTHEAST OHIO

CITY           SKY/WX    TMP DP  RH WIND       PRES   REMARKS
COLUMBUS       PTCLDY    51  32  48 NE5       30.27S
OSU AIRPORT    CLEAR     46  33  60 N5        30.28S
BOLTON FIELD   PTCLDY    46  33  61 N6        30.28S
RICKENBACK AFB PTCLDY    51  26  37 NE7       30.27R
NEWARK         MOCLDY    49  31  49 N5        30.28S
MARION         CLEAR     39  31  72 NE6       30.30S
LANCASTER      PTCLDY    46  32  58 CALM      30.28S
ZANESVILLE     MOCLDY    50  25  37 CALM      30.27S
NEW PHILLY     MOCLDY    49  27  42 CALM      30.30S
$$



USA.gov is the U.S. government's official web portal to all federal, state and local government web resources and services.